COSMOS 2251 DEB, 33819

Orbit data source: Space-Track

COSMOS 2251 DEB, 33819 is space debris in LEO originally from a launch on Wed, 16 Jun 1993 UTC launched from the Plesetsk Missile And Space Complex (PKMTR). The debris from Iridium 33, an American commercial communications satellite, has been tracked extensively since its accidental collision with the defunct Russian satellite Cosmos 2251 in 2009. This event, occurring at high speed in low Earth orbit (LEO), generated thousands of pieces of space debris, significantly increasing the risk of further collisions. The Iridium 33 debris cloud has impacted space traffic management and orbital debris mitigation strategies, making it a subject of ongoing study in space situational awareness.

Loading next visibility...
Identifier
33819, 1993-036BL
Orbit
LEO
Country
Flag of CISCIS
Related business
Manufacturer
Unknown
Mission
Spacecraft
Bus & Motor
Unknown
Mass
Unknown
Launch date (UTC)
1993-06-16 (32 years ago)
Launch vehicle
Unknown
Launch site
Plesetsk Missile And Space Complex (PKMTR)
Object type
Payload
Rocket body
Debris
Shape & HBR
Unknown shape, 0.2 m
Radar Cross Section
Small (<0.1 m²)

Expand to show TLE details & history
Last TLE update: 10 hours ago

TLE from 10 hours ago
0 COSMOS 2251 DEB
1 33819U 93036BL  25300.04044333  .00002060  00000-0  74352-3 0  9998
2 33819  74.1789 294.2995 0089351 170.1311 247.1716 14.31979197868272
Epoch: 2025-10-27T00:58Z
TLE epoch observation values (Epoch: 2025-10-27T00:58:14.303Z)
Latitude
53.33574°
Longitude
-93.65805°
Altitude
818.825 km
Speed
7.436 km/s
True Right ascension
21h 06m 11s
True Declination
53° 10' 20"
Sunlit
Object was in daylight at epoch
Visualization orbit readout
Latitude
Unknown
Longitude
Unknown
Altitude
Unknown
Speed
Unknown
Apparent Right ascension
Unknown
Apparent Declination
Unknown
Sunlit
N/A
Visualization observer readout
Local Sidereal Time
06:07:01
Azimuth
Unknown
Elevation
Unknown
Doppler factor
Unknown
Orbital elements
Apogee altitude
846.722 km
Perigee altitude
718.756 km
Semi-major axis
7,160.876 km
Eccentricity
0.00894
Inclination
74.1789°
RAAN
294.2995°
Arg. of periapsis
170.1311°
True anomaly
246.23203°
Mean anomaly
247.1716°
Eccentric anomaly
246.7014°
Mean motion
3.58174 °/min
Orbital period
100.51 mins
BSTAR
0.00074352
Loading maneuver chart data...
Computing Atmospheric mass density...

Documentation

Showing up to 5 results
|